Погода в Лорне

Австралия     38°32′06″S   143°58′25″E
темп.,
°C
ветер,
м/с
пор.,
м/с
влажн.,
%
обл.,
%
осадки,
мм/ч
давл.,
гПа
погр.,
м
13 июня, вс
вс1301:00+10зсз249148 0.0 1017118
04:00+11з248798 0.1 1016143
07:00+11з2388100 0.1 1017105
10:00+12з1383100 0.3 1018179
13:00+12зсз138095 0.2 1017376
16:00+13з127686 0.4 1016387
19:00+11з1183100 0.3 101760
22:00+11зсз118199 0.4 101855
14 июня, пн
пн1401:00+11ссз1179100 0.1 101774
04:00+11сз1173100 0.1 101761
07:00+10сз227073 0.0 101780
10:00+11сз1263100 0.0 1017158
13:00+14с135498 0.0 1016891
16:00+13св116788 0.0 101546
19:00+10с1176100 0.0 101676
22:00+9ссз2278100 0.0 101770
15 июня, вт
вт1501:00+9сз2377100 0.0 101669
04:00+8сз2376100 0.0 101671
07:00+8ссз2375100 0.0 101687
10:00+10с2566100 0.0 1016212
13:00+13ссв2459100 0.0 1015524
16:00+13св366694 0.0 1014517
19:00+11ссв4108296 0.2 1015470
22:00+10св4118150 0.3 1015532
16 июня, ср
ср1601:00+9ссв41290100 0.3 1013496
04:00+9с31193100 1.0 1012453
07:00+10ссв3896100 4.4 1011373
10:00+10ссв4894100 4.8 1012441
13:00+11с4888100 0.1 1010758
16:00+11ссз3881100 0.2 1009563
19:00+10сз2388100 0.0 1010106
22:00+9зсз3587100 0.0 1010162
17 июня, чт
чт1701:00+8зсз2589100 0.0 1010139
04:00+7зсз34889 0.0 1010108
07:00+6зсз369015 0.0 1011158
10:00+9сз39816 0.0 1011384
13:00+13зсз4671100 0.0 1010927
16:00+12сз357093 0.0 1009972
19:00+11сз498193 0.1 1009467
22:00+10сз489099 0.4 1009577